OAL883 FIMP-FMMI

Flight info

Callsign OAL883
Flight time 1h 35m
Altitude 38000
Route RASMA UA400 TE
Aircraft A319/M-SDE3FGHIRWY/LB1

Departure

Time 2026-04-29 09:52
Airport Sir Seewoosagur Ramgoolam International Airport (FIMP)

Arrival

Time 2026-04-29 11:28
Airport Ivato International Airport (FMMI)
Time Latitude Longitude Altitude Speed Heading
2026-04-29 09:40 -20.43075 57.67638 186 ft 0 kts 207°
2026-04-29 09:45 -20.43064 57.67644 202 ft 4 kts 208°
2026-04-29 09:45 -20.43041 57.67658 200 ft 4 kts 211°
2026-04-29 09:45 -20.43018 57.67673 198 ft 4 kts 218°
2026-04-29 09:45 -20.42999 57.67693 200 ft 4 kts 244°
2026-04-29 09:46 -20.42996 57.67711 200 ft 1 kts 297°
2026-04-29 09:46 -20.42998 57.67715 201 ft 0 kts 297°
2026-04-29 09:48 -20.42997 57.67714 201 ft 1 kts 297°
2026-04-29 09:48 -20.42987 57.67694 200 ft 5 kts 299°
2026-04-29 09:49 -20.42962 57.67656 196 ft 8 kts 320°
2026-04-29 09:49 -20.42908 57.67622 186 ft 11 kts 330°
2026-04-29 09:49 -20.42837 57.67575 195 ft 14 kts 325°
2026-04-29 09:49 -20.42758 57.67512 192 ft 14 kts 322°
2026-04-29 09:50 -20.42674 57.67471 196 ft 13 kts 342°
2026-04-29 09:50 -20.42593 57.67439 193 ft 13 kts 323°
2026-04-29 09:50 -20.42543 57.67352 195 ft 14 kts 299°
2026-04-29 09:50 -20.42509 57.67277 199 ft 10 kts 284°
2026-04-29 09:51 -20.42510 57.67216 198 ft 6 kts 299°
2026-04-29 09:51 -20.42484 57.67224 199 ft 5 kts 73°
2026-04-29 09:51 -20.42492 57.67248 209 ft 4 kts 112°
2026-04-29 09:51 -20.42509 57.67287 200 ft 8 kts 115°
2026-04-29 09:52 -20.42608 57.67503 201 ft 65 kts 117°
2026-04-29 09:52 -20.42918 57.68141 183 ft 128 kts 117°
2026-04-29 09:52 -20.43370 57.69068 642 ft 141 kts 114°
2026-04-29 09:52 -20.43806 57.70015 1307 ft 144 kts 111°
2026-04-29 09:53 -20.44243 57.70987 2011 ft 148 kts 112°
2026-04-29 09:53 -20.44736 57.72015 2468 ft 167 kts 113°
2026-04-29 09:53 -20.45353 57.73173 2905 ft 195 kts 125°
2026-04-29 09:53 -20.46630 57.73905 3391 ft 231 kts 171°
2026-04-29 09:54 -20.48280 57.73539 3979 ft 262 kts 210°
2026-04-29 09:54 -20.49698 57.72192 4788 ft 280 kts 231°
2026-04-29 09:54 -20.50886 57.70519 5875 ft 286 kts 236°
2026-04-29 09:54 -20.52034 57.68777 7025 ft 287 kts 236°
2026-04-29 09:55 -20.53221 57.67051 8131 ft 290 kts 233°
2026-04-29 09:55 -20.54478 57.65354 9196 ft 294 kts 231°
2026-04-29 09:55 -20.55805 57.63663 9743 ft 298 kts 229°
2026-04-29 09:55 -20.57165 57.62004 9940 ft 297 kts 228°
2026-04-29 09:56 -20.58587 57.60311 9994 ft 323 kts 228°
2026-04-29 09:56 -20.60163 57.58455 10002 ft 347 kts 227°
2026-04-29 09:56 -20.61788 57.56521 9992 ft 352 kts 230°
2026-04-29 09:56 -20.63067 57.54300 10001 ft 353 kts 247°
2026-04-29 09:57 -20.63691 57.51766 10053 ft 358 kts 264°
2026-04-29 09:57 -20.63570 57.49106 10759 ft 361 kts 280°
2026-04-29 09:57 -20.63049 57.46481 11577 ft 363 kts 282°
2026-04-29 09:57 -20.62514 57.43839 12357 ft 366 kts 282°
2026-04-29 09:58 -20.61823 57.41209 13120 ft 371 kts 291°
2026-04-29 09:58 -20.60663 57.38736 13854 ft 375 kts 302°
2026-04-29 09:58 -20.59162 57.36436 14490 ft 380 kts 305°
2026-04-29 09:58 -20.57627 57.34118 15109 ft 385 kts 304°
2026-04-29 09:59 -20.56075 57.31765 15732 ft 390 kts 304°
2026-04-29 09:59 -20.54506 57.29383 16367 ft 394 kts 304°
2026-04-29 09:59 -20.52922 57.26979 16995 ft 399 kts 304°
2026-04-29 09:59 -20.51319 57.24541 17623 ft 403 kts 304°
2026-04-29 10:00 -20.49699 57.22074 18235 ft 409 kts 304°
2026-04-29 10:00 -20.48059 57.19579 18770 ft 413 kts 304°
2026-04-29 10:00 -20.46202 57.17214 19317 ft 418 kts 312°
2026-04-29 10:00 -20.44221 57.14934 19889 ft 421 kts 311°
2026-04-29 10:01 -20.42222 57.12634 20458 ft 425 kts 311°
2026-04-29 10:01 -20.40207 57.10317 20994 ft 428 kts 311°
2026-04-29 10:01 -20.38173 57.07978 21485 ft 432 kts 311°
2026-04-29 10:01 -20.36248 57.05513 21958 ft 434 kts 303°
2026-04-29 10:02 -20.34742 57.02724 22433 ft 435 kts 293°
2026-04-29 10:02 -20.33720 56.99687 22900 ft 436 kts 282°
2026-04-29 10:02 -20.33186 56.96507 23358 ft 437 kts 276°
2026-04-29 10:02 -20.32756 56.93290 23770 ft 440 kts 276°
2026-04-29 10:03 -20.32310 56.90053 24158 ft 442 kts 276°
2026-04-29 10:03 -20.31852 56.86805 24548 ft 445 kts 276°
2026-04-29 10:03 -20.31387 56.83537 24932 ft 447 kts 276°
2026-04-29 10:03 -20.30922 56.80253 25309 ft 450 kts 276°
2026-04-29 10:04 -20.30457 56.76948 25685 ft 452 kts 276°
2026-04-29 10:04 -20.29992 56.73629 26066 ft 454 kts 276°
2026-04-29 10:04 -20.29524 56.70294 26439 ft 457 kts 276°
2026-04-29 10:04 -20.29055 56.66942 26809 ft 459 kts 275°
2026-04-29 10:05 -20.28584 56.63569 27181 ft 461 kts 275°
2026-04-29 10:05 -20.28111 56.60182 27545 ft 464 kts 275°
2026-04-29 10:05 -20.27633 56.56776 27905 ft 466 kts 275°
2026-04-29 10:05 -20.27151 56.53355 28251 ft 469 kts 275°
2026-04-29 10:06 -20.26663 56.49913 28598 ft 471 kts 275°
2026-04-29 10:06 -20.26170 56.46455 28944 ft 473 kts 275°
2026-04-29 10:06 -20.25675 56.42986 29287 ft 475 kts 275°
2026-04-29 10:06 -20.25178 56.39496 29626 ft 478 kts 275°
2026-04-29 10:07 -20.24681 56.35993 29953 ft 480 kts 275°
2026-04-29 10:07 -20.24183 56.32471 30249 ft 482 kts 275°
2026-04-29 10:07 -20.23682 56.28946 30565 ft 482 kts 275°
2026-04-29 10:07 -20.23176 56.25423 30996 ft 480 kts 275°
2026-04-29 10:08 -20.22668 56.21921 31452 ft 478 kts 275°
2026-04-29 10:08 -20.22164 56.18435 31921 ft 475 kts 275°
2026-04-29 10:08 -20.21667 56.14967 32406 ft 472 kts 275°
2026-04-29 10:08 -20.21334 56.12636 32742 ft 471 kts 275°
2026-04-29 10:09 -20.20683 56.08089 33432 ft 467 kts 275°
2026-04-29 10:09 -20.20195 56.04682 33977 ft 464 kts 275°
2026-04-29 10:09 -20.19712 56.01292 34464 ft 461 kts 275°
2026-04-29 10:09 -20.19258 55.97922 34952 ft 459 kts 274°
2026-04-29 10:10 -20.18826 55.94569 35435 ft 456 kts 274°
2026-04-29 10:10 -20.18541 55.92311 35754 ft 455 kts 274°
2026-04-29 10:10 -20.18120 55.88976 36233 ft 453 kts 274°
2026-04-29 10:10 -20.17700 55.85664 36681 ft 451 kts 274°
2026-04-29 10:11 -20.17278 55.82361 37144 ft 450 kts 274°
2026-04-29 10:11 -20.16852 55.79067 37610 ft 448 kts 274°
2026-04-29 10:11 -20.16426 55.75786 37916 ft 448 kts 275°
2026-04-29 10:11 -20.15994 55.72517 37979 ft 445 kts 275°
2026-04-29 10:12 -20.15129 55.66018 37979 ft 442 kts 275°
2026-04-29 10:12 -20.14271 55.59540 37996 ft 442 kts 275°
2026-04-29 10:13 -20.13422 55.53064 37991 ft 442 kts 275°
2026-04-29 10:13 -20.12552 55.46590 37977 ft 442 kts 275°
2026-04-29 10:14 -20.11633 55.40124 37983 ft 442 kts 275°
2026-04-29 10:14 -20.10707 55.33662 37975 ft 442 kts 275°
2026-04-29 10:15 -20.09789 55.27198 37988 ft 442 kts 275°
2026-04-29 10:15 -20.08869 55.20736 37980 ft 442 kts 275°
2026-04-29 10:16 -20.07950 55.14281 37977 ft 441 kts 275°
2026-04-29 10:16 -20.07030 55.07823 37980 ft 441 kts 275°
2026-04-29 10:17 -20.06108 55.01367 37992 ft 441 kts 276°
2026-04-29 10:17 -20.05179 54.94913 37971 ft 441 kts 276°
2026-04-29 10:18 -20.04246 54.88455 37978 ft 442 kts 276°
2026-04-29 10:18 -20.03316 54.82004 37983 ft 442 kts 276°
2026-04-29 10:19 -20.02387 54.75554 37970 ft 442 kts 276°
2026-04-29 10:19 -20.01448 54.69097 37978 ft 442 kts 276°
2026-04-29 10:20 -20.00506 54.62646 37974 ft 442 kts 276°
2026-04-29 10:20 -19.99565 54.56190 37968 ft 442 kts 276°
2026-04-29 10:21 -19.98621 54.49742 37992 ft 441 kts 276°
2026-04-29 10:21 -19.97676 54.43298 37981 ft 441 kts 276°
2026-04-29 10:22 -19.96730 54.36862 37986 ft 441 kts 276°
2026-04-29 10:22 -19.95781 54.30427 37987 ft 440 kts 276°
2026-04-29 10:23 -19.94838 54.23998 37979 ft 440 kts 276°
2026-04-29 10:23 -19.93893 54.17573 37982 ft 440 kts 276°
2026-04-29 10:24 -19.92931 54.11150 37989 ft 440 kts 276°
2026-04-29 10:24 -19.91971 54.04723 37981 ft 440 kts 276°
2026-04-29 10:25 -19.91013 53.98302 37973 ft 440 kts 276°
2026-04-29 10:25 -19.90055 53.91877 37990 ft 440 kts 276°
2026-04-29 10:26 -19.89091 53.85445 37974 ft 441 kts 277°
2026-04-29 10:26 -19.88114 53.79018 37975 ft 441 kts 277°
2026-04-29 10:27 -19.86659 53.69370 37975 ft 441 kts 277°
2026-04-29 10:28 -19.85686 53.62933 37974 ft 441 kts 277°
2026-04-29 10:28 -19.84717 53.56504 37976 ft 441 kts 277°
2026-04-29 10:29 -19.83740 53.50069 37982 ft 441 kts 277°
2026-04-29 10:29 -19.82759 53.43635 37983 ft 441 kts 277°
2026-04-29 10:30 -19.81776 53.37208 37988 ft 441 kts 277°
2026-04-29 10:30 -19.80792 53.30782 37986 ft 441 kts 277°
2026-04-29 10:31 -19.79799 53.24352 37986 ft 441 kts 277°
2026-04-29 10:31 -19.78805 53.17918 37990 ft 442 kts 277°
2026-04-29 10:32 -19.77813 53.11483 37990 ft 442 kts 277°
2026-04-29 10:32 -19.76816 53.05050 37984 ft 442 kts 277°
2026-04-29 10:33 -19.75811 52.98611 37984 ft 442 kts 277°
2026-04-29 10:33 -19.74815 52.92179 37985 ft 442 kts 277°
2026-04-29 10:34 -19.73813 52.85702 37988 ft 442 kts 277°
2026-04-29 10:34 -19.72810 52.79266 37982 ft 442 kts 277°
2026-04-29 10:35 -19.71801 52.72837 37985 ft 442 kts 277°
2026-04-29 10:35 -19.70785 52.66401 37984 ft 442 kts 277°
2026-04-29 10:36 -19.69768 52.59971 37990 ft 442 kts 277°
2026-04-29 10:36 -19.68761 52.53545 37994 ft 442 kts 277°
2026-04-29 10:37 -19.67751 52.47118 37983 ft 442 kts 278°
2026-04-29 10:37 -19.66726 52.40687 37975 ft 442 kts 278°
2026-04-29 10:38 -19.65698 52.34257 37975 ft 442 kts 278°
2026-04-29 10:38 -19.64672 52.27825 37988 ft 442 kts 278°
2026-04-29 10:39 -19.63646 52.21399 37985 ft 442 kts 278°
2026-04-29 10:39 -19.62621 52.14973 37984 ft 442 kts 278°
2026-04-29 10:40 -19.61591 52.08547 37991 ft 442 kts 278°
2026-04-29 10:40 -19.60562 52.02125 37976 ft 442 kts 278°
2026-04-29 10:41 -19.59526 51.95701 37975 ft 442 kts 278°
2026-04-29 10:41 -19.58487 51.89279 37975 ft 442 kts 278°
2026-04-29 10:42 -19.57439 51.82853 37979 ft 442 kts 278°
2026-04-29 10:42 -19.56398 51.76431 37977 ft 442 kts 278°
2026-04-29 10:43 -19.55364 51.70005 37984 ft 442 kts 278°
2026-04-29 10:43 -19.54317 51.63585 37987 ft 442 kts 278°
2026-04-29 10:44 -19.53259 51.57168 37981 ft 442 kts 278°
2026-04-29 10:44 -19.52201 51.50748 37992 ft 442 kts 278°
2026-04-29 10:45 -19.51148 51.44325 37980 ft 442 kts 278°
2026-04-29 10:45 -19.50090 51.37904 37985 ft 442 kts 278°
2026-04-29 10:46 -19.49043 51.31485 37997 ft 442 kts 278°
2026-04-29 10:46 -19.47985 51.25072 38002 ft 441 kts 278°
2026-04-29 10:47 -19.47103 51.19755 38003 ft 441 kts 278°
2026-04-29 10:47 -19.46033 51.13361 37999 ft 441 kts 278°
2026-04-29 10:48 -19.44968 51.06967 37995 ft 440 kts 278°
2026-04-29 10:48 -19.43914 51.00576 37996 ft 440 kts 278°
2026-04-29 10:49 -19.42846 50.94190 37997 ft 441 kts 278°
2026-04-29 10:49 -19.41769 50.87802 37998 ft 440 kts 278°
2026-04-29 10:50 -19.40698 50.81414 38005 ft 440 kts 278°
2026-04-29 10:50 -19.39631 50.75027 38003 ft 440 kts 278°
2026-04-29 10:51 -19.38558 50.68644 37999 ft 440 kts 278°
2026-04-29 10:51 -19.37466 50.62220 37996 ft 440 kts 279°
2026-04-29 10:52 -19.36393 50.55882 37994 ft 440 kts 279°
2026-04-29 10:52 -19.35305 50.49460 37994 ft 440 kts 279°
2026-04-29 10:53 -19.34230 50.43126 37994 ft 440 kts 279°
2026-04-29 10:53 -19.33146 50.36760 37992 ft 440 kts 279°
2026-04-29 10:54 -19.32051 50.30383 37995 ft 440 kts 279°
2026-04-29 10:54 -19.30956 50.24012 37995 ft 440 kts 279°
2026-04-29 10:55 -19.29856 50.17610 38000 ft 440 kts 279°
2026-04-29 10:55 -19.28765 50.11286 38000 ft 440 kts 279°
2026-04-29 10:56 -19.27666 50.04873 37996 ft 440 kts 279°
2026-04-29 10:56 -19.26565 49.98506 37995 ft 440 kts 279°
2026-04-29 10:57 -19.25461 49.92142 37990 ft 440 kts 279°
2026-04-29 10:57 -19.24357 49.85774 37992 ft 440 kts 279°
2026-04-29 10:58 -19.23254 49.79405 37991 ft 440 kts 279°
2026-04-29 10:58 -19.22145 49.73036 37993 ft 440 kts 279°
2026-04-29 10:59 -19.21026 49.66667 37992 ft 440 kts 279°
2026-04-29 10:59 -19.19913 49.60301 37993 ft 440 kts 279°
2026-04-29 11:00 -19.18798 49.53931 37993 ft 440 kts 279°
2026-04-29 11:00 -19.17677 49.47558 37993 ft 440 kts 279°
2026-04-29 11:01 -19.16556 49.41191 37997 ft 441 kts 279°
2026-04-29 11:01 -19.15433 49.34819 37994 ft 441 kts 279°
2026-04-29 11:02 -19.14301 49.28448 37988 ft 441 kts 279°
2026-04-29 11:02 -19.13168 49.22071 37990 ft 441 kts 279°
2026-04-29 11:03 -19.12037 49.15693 37996 ft 441 kts 279°
2026-04-29 11:03 -19.10898 49.09322 37997 ft 441 kts 279°
2026-04-29 11:04 -19.09755 49.02943 38005 ft 441 kts 279°
2026-04-29 11:04 -19.08615 48.96567 38003 ft 442 kts 279°
2026-04-29 11:05 -19.07474 48.90186 38015 ft 442 kts 279°
2026-04-29 11:05 -19.06331 48.83806 38017 ft 442 kts 279°
2026-04-29 11:06 -19.05184 48.77431 38024 ft 442 kts 279°
2026-04-29 11:06 -19.04034 48.71052 38040 ft 442 kts 279°
2026-04-29 11:07 -19.02884 48.64677 38058 ft 442 kts 279°
2026-04-29 11:07 -19.01735 48.58299 38054 ft 442 kts 279°
2026-04-29 11:08 -19.00579 48.51917 38068 ft 442 kts 279°
2026-04-29 11:08 -18.99419 48.45537 38087 ft 442 kts 279°
2026-04-29 11:09 -18.98259 48.39157 38094 ft 442 kts 279°
2026-04-29 11:09 -18.97096 48.32767 38096 ft 443 kts 279°
2026-04-29 11:10 -18.95925 48.26386 38109 ft 443 kts 279°
2026-04-29 11:10 -18.94729 48.20011 38119 ft 443 kts 280°
2026-04-29 11:10 -18.94083 48.16817 37914 ft 444 kts 281°
2026-04-29 11:11 -18.93413 48.13642 37668 ft 444 kts 281°
2026-04-29 11:11 -18.92727 48.10463 37332 ft 443 kts 281°
2026-04-29 11:11 -18.92037 48.07280 36518 ft 447 kts 281°
2026-04-29 11:11 -18.91346 48.04070 35697 ft 451 kts 281°
2026-04-29 11:12 -18.90658 48.00827 34799 ft 455 kts 281°
2026-04-29 11:12 -18.89972 47.97541 33768 ft 460 kts 281°
2026-04-29 11:12 -18.89282 47.94222 32678 ft 464 kts 280°
2026-04-29 11:12 -18.88585 47.90877 31529 ft 469 kts 280°
2026-04-29 11:13 -18.87880 47.87501 30378 ft 473 kts 280°
2026-04-29 11:13 -18.87165 47.84092 29071 ft 476 kts 280°
2026-04-29 11:13 -18.86446 47.80671 27779 ft 478 kts 280°
2026-04-29 11:13 -18.85719 47.77241 26547 ft 479 kts 281°
2026-04-29 11:14 -18.84987 47.73806 25365 ft 479 kts 281°
2026-04-29 11:14 -18.84256 47.70372 24226 ft 479 kts 281°
2026-04-29 11:14 -18.83527 47.66945 22997 ft 479 kts 281°
2026-04-29 11:14 -18.82801 47.63531 21884 ft 475 kts 282°
2026-04-29 11:15 -18.82085 47.60157 20919 ft 467 kts 281°
2026-04-29 11:15 -18.81390 47.56890 19970 ft 461 kts 282°
2026-04-29 11:15 -18.80684 47.53554 19034 ft 455 kts 282°
2026-04-29 11:15 -18.80022 47.50320 18114 ft 447 kts 279°
2026-04-29 11:16 -18.79913 47.47128 17283 ft 437 kts 266°
2026-04-29 11:16 -18.80055 47.43954 16515 ft 428 kts 266°
2026-04-29 11:16 -18.80208 47.40836 15747 ft 421 kts 266°
2026-04-29 11:16 -18.80365 47.37781 14980 ft 415 kts 265°
2026-04-29 11:17 -18.80520 47.34755 14195 ft 409 kts 266°
2026-04-29 11:17 -18.80672 47.31769 13315 ft 405 kts 266°
2026-04-29 11:17 -18.80818 47.28833 12479 ft 398 kts 266°
2026-04-29 11:17 -18.80955 47.25945 11641 ft 391 kts 266°
2026-04-29 11:18 -18.81086 47.23109 11000 ft 379 kts 266°
2026-04-29 11:18 -18.81208 47.20456 10729 ft 347 kts 266°
2026-04-29 11:18 -18.81318 47.18013 10550 ft 320 kts 266°
2026-04-29 11:18 -18.81424 47.15727 10202 ft 305 kts 266°
2026-04-29 11:19 -18.81529 47.13514 10034 ft 301 kts 266°
2026-04-29 11:19 -18.81567 47.11328 9902 ft 295 kts 275°
2026-04-29 11:19 -18.80807 47.09384 9766 ft 286 kts 309°
2026-04-29 11:19 -18.79210 47.08231 9635 ft 276 kts 343°
2026-04-29 11:20 -18.77362 47.08151 9502 ft 262 kts 14°
2026-04-29 11:20 -18.75780 47.08944 9375 ft 247 kts 41°
2026-04-29 11:20 -18.74751 47.10304 9250 ft 232 kts 66°
2026-04-29 11:20 -18.74366 47.11899 9128 ft 219 kts 90°
2026-04-29 11:21 -18.74517 47.13449 9002 ft 208 kts 102°
2026-04-29 11:21 -18.74744 47.14939 8882 ft 205 kts 101°
2026-04-29 11:21 -18.74969 47.16424 8769 ft 205 kts 101°
2026-04-29 11:21 -18.75191 47.17892 8644 ft 199 kts 101°
2026-04-29 11:22 -18.75402 47.19295 8521 ft 189 kts 101°
2026-04-29 11:22 -18.75607 47.20654 8400 ft 182 kts 101°
2026-04-29 11:22 -18.75804 47.21959 8286 ft 183 kts 101°
2026-04-29 11:22 -18.76003 47.23278 8212 ft 182 kts 101°
2026-04-29 11:23 -18.76202 47.24599 8066 ft 183 kts 101°
2026-04-29 11:23 -18.76400 47.25918 7861 ft 181 kts 101°
2026-04-29 11:23 -18.76598 47.27230 7643 ft 181 kts 102°
2026-04-29 11:23 -18.76796 47.28543 7406 ft 182 kts 101°
2026-04-29 11:24 -18.76993 47.29856 7198 ft 181 kts 101°
2026-04-29 11:24 -18.77189 47.31163 6973 ft 180 kts 101°
2026-04-29 11:24 -18.77383 47.32456 6764 ft 176 kts 101°
2026-04-29 11:24 -18.77572 47.33713 6548 ft 172 kts 102°
2026-04-29 11:25 -18.77759 47.34957 6315 ft 171 kts 102°
2026-04-29 11:25 -18.77945 47.36200 6103 ft 171 kts 102°
2026-04-29 11:25 -18.78131 47.37439 5875 ft 169 kts 101°
2026-04-29 11:25 -18.78311 47.38638 5671 ft 161 kts 100°
2026-04-29 11:26 -18.78586 47.40479 5361 ft 145 kts 101°
2026-04-29 11:26 -18.78741 47.41515 5156 ft 143 kts 97°
2026-04-29 11:26 -18.78890 47.42559 4953 ft 144 kts 98°
2026-04-29 11:27 -18.79065 47.43607 4766 ft 146 kts 98°
2026-04-29 11:27 -18.79218 47.44674 4535 ft 147 kts 97°
2026-04-29 11:27 -18.79364 47.45706 4342 ft 136 kts 97°
2026-04-29 11:27 -18.79506 47.46662 4167 ft 123 kts 97°
2026-04-29 11:28 -18.79623 47.47435 4162 ft 85 kts 99°
2026-04-29 11:28 -18.79691 47.47872 4163 ft 38 kts 99°
2026-04-29 11:28 -18.79719 47.48059 4164 ft 13 kts 99°
2026-04-29 11:28 -18.79763 47.48120 4163 ft 9 kts 168°
2026-04-29 11:29 -18.79783 47.48119 4164 ft 1 kts 185°
2026-04-29 11:29 -18.79786 47.48119 4164 ft 1 kts 186°
2026-04-29 11:29 -18.79794 47.48118 4164 ft 1 kts 187°
2026-04-29 11:29 -18.79805 47.48116 4164 ft 2 kts 188°
2026-04-29 11:30 -18.79832 47.48111 4165 ft 6 kts 189°
2026-04-29 11:30 -18.79878 47.48103 4165 ft 7 kts 189°
2026-04-29 11:30 -18.79905 47.48063 4166 ft 8 kts 270°
2026-04-29 11:30 -18.79894 47.47997 4166 ft 10 kts 280°
2026-04-29 11:31 -18.79887 47.47956 4166 ft 3 kts 280°
2026-04-29 11:31 -18.79894 47.47933 4166 ft 3 kts 226°
2026-04-29 11:31 -18.79923 47.47928 4166 ft 5 kts 186°
2026-04-29 11:31 -18.79952 47.47924 4166 ft 0 kts 188°
2026-04-29 11:32 -18.79961 47.47922 4166 ft 2 kts 188°
2026-04-29 11:32 -18.79979 47.47919 4166 ft 3 kts 188°
2026-04-29 11:32 -18.79987 47.47918 4166 ft 0 kts 188°